Weather Roundup
Issued by NWS Chicago, IL

Home | Current Version | Previous Version | Text Only | Print | Product List | Glossary On
Versions: 1 2 3 4 5 6 7 8 9 10 11 12 13 14 15 16 17 18 19 20 21 22 23 24 25 26 27 28 29 30 31 32 33 34 35 36 37 38 39 40 41 42 43 44 45 46 47 48 49 50
000
NZUS59 KLOT 092108
HRRLOT

CHICAGO AREA WEATHER ROUNDUP
NATIONAL WEATHER SERVICE CHICAGO/ROMEOVILLE IL
300 PM CST TUE FEB 09 2016

NOTE: "FAIR" INDICATES FEW OR NO CLOUDS BELOW 12,000 FEET WITH NO
SIGNIFICANT WEATHER AND/OR OBSTRUCTIONS TO VISIBILITY.

* THESE STATIONS ARE NOT UNDER NWS QUALITY CONTROL. THEY ALSO MAY NOT
  REPORT WEATHER SUCH AS PRECIPITATION OR FOG.

ILZ005-006-012>014-019>023-092200-
NORTHEAST ILLINOIS

CITY           SKY/WX    TMP DP  RH WIND       PRES   REMARKS
OHARE          FLURRIES  17   7  64 NW17      29.85R WCI   1
MIDWAY         FLURRIES  19   6  57 NW13      29.86R WCI   6
AURORA         CLOUDY    18   8  65 NW18      29.88R WCI   2
LANSING*       CLOUDY    19   8  63 NW10G20   29.86R WCI   7
JOLIET*        CLOUDY    19   8  61 NW7G18    29.89R WCI  10
WAUKEGAN       CLOUDY    17   6  62 NW10G17   29.84R WCI   5
DUPAGE AIRPORT MIX PCPN  16   5  62 NW18G24   29.86R WCI   0
WHEELING       CLOUDY    17   7  64 NW14      29.87R WCI   3
KANKAKEE*      FLURRIES  18  10  70 NW14G22   29.89R WCI   4
MORRIS*        CLOUDY    18   8  67 NW17G24   29.88R WCI   2
LEWIS AIRPORT* FLURRIES  17   7  65 NW16      29.87R WCI   2
$$

WIZ051-052-058>065-066-070>072-092200-
SOUTHEAST WISCONSIN

CITY           SKY/WX    TMP DP  RH WIND       PRES   REMARKS
MILWAUKEE      CLOUDY    18   6  59 NW15      29.84R WCI   4
KENOSHA*       FLURRIES  17   7  64 NW12      29.84R WCI   4
RACINE*        CLOUDY    17   6  62 NW12      29.85R WCI   4
BURLINGTON     CLOUDY    15   4  63 NW15      29.85R WCI   0
WAUKESHA       CLOUDY    14   7  73 NW16G25   29.84R WCI  -2
WEST BEND      FLURRIES  18   9  68 NW14G21   29.83R WCI   4
$$

INZ001>003-010>013-019-020-092200-
NORTHWEST INDIANA

CITY           SKY/WX    TMP DP  RH WIND       PRES   REMARKS
GARY*          NOT AVBL
MICHIGAN CITY* NOT AVBL
RENSSELAER*    NOT AVBL
VALPARAISO     LGT SNOW  20  11  68 MISG      29.83R
$$

LMZ740>746-092200-
SOUTHERN LAKE MICHIGAN

STATION/POSITION TIME  SKY/WX   TEMP WIND        PRES    VSBY
                                AIR  DIR/SP/G
                 (UTC)          (F)  (DEG/KT/KT) (MB)    (MI)
HARRISON CRIB    2000            19  300/ 16/ 19   N/A
BURNHAM HARBOR   2100            18  310/ 12/ 15   N/A
CALUMET HARBOR   2000            19  270/  9/ 15 1009.8R
BURNS HARBOR     2000            20  320/ 12/ 22 1010.2R
MICHIGAN CITY    2000            20  280/ 20/ 24   N/A
$$

ABBREVIATIONS USED IN REMARKS
   TC - TEMPERATURE IN CELSIUS
  WCI - WIND CHILL INDEX
   HX - HEAT INDEX
  VSB - VISIBILITY
$$



USA.gov is the U.S. government's official web portal to all federal, state and local government web resources and services.